Voltar ao catálogo

SPACEMOBILE-SSR01 DEB

AtivoVLEO
NORAD 62369·DEBRIS·🇺🇸 United States

Lançado Sep 12, 2024 de Cape Canaveral Space Force Station

Loading…

Próximas Passagens (próximas 24 horas)

TLE

AtualizadoSource: Space-Track

Época: Sep 14, 2026, 06:46 UTC

1 62369U 24163F   26257.28220605  .00007141  00000-0  20901-3 0  9997
2 62369  52.9927 220.2123 0009328  86.4165 273.7902 15.36339794100197

Acompanhe SPACEMOBILE-SSR01 DEB em tempo real com AllMySat

Download on the App Store